Regional Weather Roundup
Issued by NWS

Home | Current Version | Previous Version | Graphics & Text | Print | Product List | Glossary On
Versions: 1 2 3 4 5 6 7 8 9 10 11 12 13 14 15 16 17 18 19 20 21 22 23 24 25 26 27
000
ASUS45 KBOU 190307
RWRCO

WEATHER ROUNDUP FOR COLORADO
NATIONAL WEATHER SERVICE DENVER/BOULDER CO
800 PM MST SAT FEB 18 2017

NOTE: "FAIR" INDICATES FEW OR NO CLOUDS BELOW 12000 FEET WITH NO
SIGNIFICANT WEATHER AND/OR OBSTRUCTIONS TO VISIBILITY.

COZ001>005-013-030-031-190400-
...NORTHWEST COLORADO...

CITY           SKY/WX    TMP DP  RH WIND       PRES   REMARKS
CRAIG          CLOUDY    34  30  85 CALM      29.77F
HAYDEN         MOCLDY    37  28  70 NE3       29.77S
MEEKER         MOCLDY    37  33  85 CALM      29.76S
MOUNT WERNER   NOT AVBL
STEAMBOAT SPGS FAIR      36  31  83 CALM      29.78S
WALDEN         NOT AVBL
$$

COZ006>008-011-190400-
...WEST CENTRAL VALLEYS...

CITY           SKY/WX    TMP DP  RH WIND       PRES   REMARKS
GRAND JUNCTION FAIR      42  39  89 CALM      29.73S
MONTROSE       FAIR      41  35  79 NE8       29.76S
EAGLE          CLEAR     43  30  61 CALM      29.76R
RIFLE          FAIR      41  33  73 S3        29.74S
DELTA          FAIR      42  37  81 CALM      29.74R
NUCLA          MOCLDY    43  36  75 CALM      29.77S
$$

COZ017>023-064>068-190400-
...SOUTHWEST COLORADO...

CITY           SKY/WX    TMP DP  RH WIND       PRES   REMARKS
DURANGO        FAIR      41  30  65 NE9       29.77S
CORTEZ         FAIR      49  31  49 SE5       29.73R
PAGOSA SPRINGS FAIR      38  29  69 CALM      29.83S
TELLURIDE      FAIR      41  17  38 S16G23    29.81F
WOLF CREEK PAS CLOUDY    25  25 100 SW13      29.97S FOG     WCI  13
$$

COZ009-010-012-014-032>034-037-058>063-190400-
...CENTRAL COLORADO...

CITY           SKY/WX    TMP DP  RH WIND       PRES   REMARKS
ASPEN          FAIR      35  28  75 S5        29.78R WCI  31
BUENA VISTA    FAIR      40  26  57 CALM      29.78S
COPPER MTN     FAIR      34  18  51 MISG      29.89R
BERTHOUD PASS  FAIR      27  18  69 S15G23    29.91R WCI  15
COTTONWOOD PAS MOCLDY    43  19  39 S3        29.84S
GUNNISON       FAIR      27  24  89 E5        29.81R WCI  22
KREMMLING      MOCLDY    41  32  70 CALM      29.78R
LEADVILLE      FAIR      30  20  66 N5        29.82R WCI  25
MONARCH PASS   FAIR      28  23  80 SW18      30.02S WCI  16
SALIDA         FAIR      45  27  49 SW7       29.84S
SUNLIGHT       NOT AVBL
WILKERSON PASS FAIR      30  21  69 S7        29.91S WCI  23
$$

COZ069>075-190400-
...SAN LUIS VALLEY/SANGRE DE CRISTO MOUNTAINS...

CITY           SKY/WX    TMP DP  RH WIND       PRES   REMARKS
ALAMOSA        FAIR      36  32  85 S3        29.79R
LA VETA PASS   FAIR      34  27  75 N9G26     29.88R WCI  26
SAGUACHE       FAIR      34  30  86 CALM      29.81R
$$

COZ035-036-038>040-190400-
...NORTHERN COLORADO FRONT RANGE...

CITY           SKY/WX    TMP DP  RH WIND       PRES   REMARKS
DENVER INTL AP MOCLDY    51  22  31 S9        29.67S
DMNS CITY PARK   N/A     54  22  28 E7        29.67R
AURORA         MOCLDY    51  23  32 S17       29.67S
FRONT RANGE AP MOCLDY    55  23  28 SE12G18   29.68R
ERIE MUNI ARPT FAIR      41  21  46 CALM      29.66R
BOULDER MUN AP FAIR      48  23  37 SW5       29.66R
CENTENNIAL     MOCLDY    50  22  33 S13       29.68S
BROOMFIELD     MOCLDY    46  21  36 CALM      29.68R
FORT COLLINS   FAIR      46  23  40 N9        29.65S
LONGMONT       FAIR      44  24  45 W7        29.68R
$$

COZ041-046-047-076>085-087-088-190400-
...PIKES PEAK/PALMER DIVIDE AND SOUTHERN FOOTHILLS...

CITY           SKY/WX    TMP DP  RH WIND       PRES   REMARKS
COLO. SPRINGS  MOCLDY    46  20  35 NE6       29.73F
A. F. ACADEMY  FAIR      45  20  37 CALM      29.73F
SCHRIEVER AFB  FAIR      46  17  31 E9        29.73F
ELLICOTT       FAIR     N/A N/A N/A S15       29.71S
FALCON         NOT AVBL
FORT CARSON    FAIR      44  20  38 CALM      29.70F
LIMON          FAIR      44  21  40 SE12      29.72F
MONUMENT HILL  FAIR      41  21  45 S9        29.75F
TRINIDAD       FAIR      54  21  27 SE8       29.74S
$$

COZ042>045-048>051-090-091-190400-
...NORTHEAST COLORADO...

CITY           SKY/WX    TMP DP  RH WIND       PRES   REMARKS
GREELEY ARPT   FAIR      49  23  36 SE8       29.66R
AKRON          FAIR      49  19  30 SE16      29.69F
BURLINGTON     FAIR      46  25  43 S14       29.73F
WRAY           NOT AVBL
STERLING       FAIR      54  23  30 S14G20    29.67R
HOLYOKE        FAIR      46  30  53 S12       29.71S
FORT MORGAN    FAIR      49  19  30 SE9       29.68S
$$

COZ086-089-092>099-190400-
...SOUTHEAST COLORADO...

CITY           SKY/WX    TMP DP  RH WIND       PRES   REMARKS
PUEBLO         FAIR      49  24  37 E7        29.65F
LA JUNTA       FAIR      57  23  26 SE7       29.69R
LAMAR          FAIR      54  25  32 S14       29.69S
SPRINGFIELD      N/A     48  28  46 S13       29.76R
$$




USA.gov is the U.S. government's official web portal to all federal, state and local government web resources and services.